QPF
0.06 0.07 0.07 0.06 0.05 0.06 0.06 0.05 0.06 0.07 0.07 0.06 0.05 0.05 0.05 0.04 0.04 0.04 0.05 0.05 0.05 0.08 0.11 0.12 0.11 0.08 0.06 0.06 0.06 0.05 0.03 0.03 0.04 0.05 0.04 0.03 0.04 0.03 0.03 0.04 0.04 0.04 0.04
0.05 0.06 0.07 0.07 0.05 0.05 0.05 0.05 0.05 0.06 0.07 0.06 0.05 0.06 0.08 0.07 0.06 0.05 0.04 0.05 0.06 0.08 0.10 0.12 0.13 0.12 0.10 0.09 0.09 0.06 0.05 0.04 0.04 0.04 0.04 0.04 0.03 0.03 0.04 0.04 0.04 0.04 0.05
0.05 0.06 0.05 0.06 0.06 0.04 0.04 0.06 0.07 0.07 0.07 0.06 0.05 0.05 0.05 0.06 0.05 0.03 0.03 0.04 0.05 0.08 0.12 0.13 0.11 0.11 0.12 0.12 0.12 0.10 0.07 0.06 0.06 0.06 0.05 0.05 0.06 0.06 0.05 0.04 0.04 0.04 0.04
0.04 0.05 0.04 0.04 0.05 0.05 0.05 0.07 0.09 0.08 0.08 0.06 0.06 0.05 0.04 0.04 0.04 0.03 0.04 0.04 0.04 0.05 0.07 0.10 0.10 0.12 0.16 0.17 0.14 0.12 0.11 0.09 0.08 0.10 0.09 0.08 0.07 0.05 0.05 0.04 0.04 0.04 0.04
0.05 0.05 0.07 0.08 0.08 0.07 0.07 0.07 0.07 0.07 0.08 0.08 0.06 0.04 0.03 0.03 0.04 0.04 0.04 0.05 0.04 0.04 0.05 0.07 0.10 0.11 0.16 0.21 0.21 0.18 0.19 0.18 0.12 0.11 0.10 0.08 0.07 0.05 0.05 0.06 0.07 0.07 0.07
0.05 0.06 0.06 0.07 0.07 0.09 0.09 0.08 0.08 0.09 0.08 0.09 0.07 0.06 0.06 0.05 0.04 0.03 0.03 0.03 0.02 0.03 0.05 0.06 0.08 0.11 0.17 0.19 0.22 0.26 0.25 0.19 0.15 0.11 0.08 0.07 0.06 0.04 0.04 0.06 0.09 0.09 0.10
0.09 0.07 0.06 0.06 0.06 0.07 0.08 0.08 0.08 0.08 0.08 0.08 0.07 0.07 0.06 0.04 0.03 0.03 0.02 0.02 0.02 0.03 0.04 0.06 0.07 0.10 0.15 0.18 0.22 0.22 0.17 0.17 0.15 0.09 0.07 0.06 0.06 0.05 0.05 0.07 0.08 0.08 0.09
0.10 0.08 0.06 0.06 0.06 0.06 0.07 0.09 0.10 0.09 0.09 0.09 0.09 0.09 0.08 0.06 0.04 0.03 0.03 0.02 0.02 0.03 0.03 0.04 0.05 0.06 0.08 0.10 0.11 0.12 0.12 0.11 0.09 0.08 0.07 0.06 0.05 0.04 0.04 0.06 0.05 0.05 0.06
0.06 0.05 0.04 0.04 0.05 0.05 0.07 0.11 0.10 0.06 0.07 0.07 0.08 0.09 0.09 0.08 0.06 0.05 0.04 0.02 0.02 0.02 0.02 0.03 0.04 0.04 0.05 0.06 0.09 0.09 0.07 0.06 0.06 0.06 0.06 0.05 0.03 0.03 0.03 0.03 0.03 0.04 0.04
0.04 0.03 0.04 0.04 0.05 0.05 0.07 0.07 0.06 0.05 0.05 0.05 0.06 0.06 0.06 0.07 0.07 0.06 0.04 0.03 0.02 0.01 0.02 0.02 0.03 0.04 0.05 0.06 0.06 0.06 0.05 0.05 0.05 0.05 0.06 0.05 0.04 0.03 0.02 0.02 0.03 0.03 0.03
0.02 0.02 0.03 0.03 0.04 0.04 0.06 0.07 0.07 0.06 0.04 0.04 0.04 0.05 0.05 0.06 0.05 0.05 0.05 0.04 0.02 0.01 0.01 0.01 0.02 0.04 0.05 0.04 0.03 0.03 0.03 0.04 0.05 0.05 0.04 0.03 0.03 0.03 0.02 0.02 0.02 0.02 0.03
0.02 0.02 0.02 0.03 0.03 0.04 0.05 0.07 0.07 0.06 0.05 0.04 0.04 0.05 0.04 0.04 0.04 0.04 0.04 0.04 0.04 0.03 0.02 0.03 0.03 0.03 0.03 0.03 0.03 0.03 0.02 0.03 0.04 0.04 0.04 0.02 0.01 0.02 0.03 0.03 0.03 0.03 0.03
0.02 0.03 0.03 0.03 0.03 0.04 0.05 0.07 0.07 0.06 0.05 0.04 0.05 0.05 0.04 0.04 0.04 0.03 0.03 0.03 0.03 0.02 0.01 0.02 0.02 0.03 0.02 0.02 0.02 0.02 0.02 0.02 0.03 0.03 0.03 0.02 0.01 0.02 0.02 0.02 0.02 0.02 0.03
0.04 0.04 0.04 0.04 0.04 0.04 0.04 0.05 0.05 0.04 0.04 0.03 0.04 0.04 0.04 0.03 0.03 0.03 0.03 0.03 0.03 0.02 0.01 0.01 0.02 0.02 0.01 0.01 0.01 0.01 0.01 0.02 0.02 0.03 0.02 0.02 0.01 0.01 0.01 0.01 0.01 0.01 0.01
0.03 0.04 0.04 0.04 0.04 0.04 0.04 0.04 0.03 0.03 0.03 0.03 0.03 0.03 0.03 0.03 0.03 0.03 0.03 0.03 0.03 0.02 0.02 0.02 0.03 0.02 0.01 0.02 0.02 0.01 0.02 0.02 0.03 0.03 0.02 0.02 0.01 0.01 0.01 0.01 0.01 0.01 0.01
0.03 0.04 0.04 0.04 0.04 0.03 0.03 0.03 0.02 0.03 0.03 0.02 0.02 0.02 0.03 0.03 0.04 0.03 0.03 0.04 0.04 0.04 0.03 0.02 0.02 0.02 0.02 0.02 0.01 0.01 0.02 0.02 0.02 0.03 0.03 0.02 0.02 0.01 0.01 0.01 0.01 0.01 0.01
0.03 0.04 0.04 0.04 0.04 0.04 0.03 0.03 0.03 0.03 0.02 0.02 0.02 0.03 0.03 0.03 0.03 0.03 0.04 0.04 0.04 0.04 0.03 0.02 0.02 0.03 0.03 0.03 0.02 0.02 0.02 0.02 0.02 0.03 0.03 0.02 0.02 0.02 0.02 0.02 0.01 0.01 0.01
0.02 0.03 0.03 0.03 0.03 0.03 0.04 0.04 0.04 0.03 0.04 0.04 0.05 0.05 0.04 0.04 0.04 0.04 0.04 0.04 0.04 0.04 0.04 0.03 0.03 0.03 0.04 0.04 0.04 0.03 0.02 0.02 0.02 0.03 0.03 0.03 0.03 0.03 0.03 0.03 0.02 0.01 0.01
0.02 0.02 0.01 0.02 0.02 0.03 0.04 0.04 0.04 0.04 0.04 0.05 0.06 0.05 0.04 0.03 0.03 0.03 0.04 0.04 0.04 0.03 0.04 0.04 0.03 0.03 0.03 0.04 0.04 0.04 0.04 0.04 0.03 0.03 0.04 0.04 0.03 0.03 0.03 0.03 0.02 0.02 0.01
0.01 0.02 0.02 0.02 0.02 0.02 0.03 0.03 0.03 0.03 0.03 0.03 0.03 0.02 0.01 0.01 0.01 0.02 0.03 0.03 0.03 0.03 0.03 0.03 0.03 0.03 0.02 0.03 0.04 0.03 0.04 0.04 0.04 0.04 0.04 0.04 0.04 0.04 0.04 0.04 0.04 0.04 0.04
0.01 0.01 0.01 0.01 0.01 0.01 0.01 0.01 0.01 0.01 0.02 0.02 0.01 0.01 0.01 0.01 0.01 0.01 0.02 0.03 0.03 0.03 0.03 0.03 0.03 0.03 0.03 0.03 0.04 0.04 0.04 0.04 0.04 0.05 0.06 0.08 0.09 0.09 0.09 0.08 0.08 0.07 0.06
0.01 0.01 0.02 0.02 0.02 0.01 0.01 0.01 0.02 0.02 0.02 0.02 0.02 0.01 0.01 0.01 0.01 0.01 0.01 0.01 0.02 0.02 0.02 0.02 0.02 0.02 0.02 0.03 0.04 0.05 0.05 0.04 0.05 0.07 0.11 0.13 0.14 0.13 0.11 0.08 0.06 0.04 0.03
0.02 0.02 0.02 0.01 0.01 0.00 0.01 0.01 0.02 0.02 0.01 0.02 0.02 0.03 0.02 0.01 0.01 0.01 0.01 0.01 0.02 0.02 0.02 0.02 0.02 0.02 0.03 0.03 0.04 0.05 0.06 0.07 0.07 0.07 0.06 0.05 0.05 0.05 0.05 0.04 0.04 0.03 0.03
0.01 0.01 0.01 0.01 0.01 0.01 0.00 0.01 0.02 0.03 0.02 0.02 0.02 0.03 0.03 0.02 0.03 0.03 0.03 0.02 0.02 0.02 0.02 0.02 0.02 0.02 0.02 0.03 0.04 0.05 0.06 0.06 0.04 0.03 0.03 0.03 0.03 0.04 0.03 0.04 0.04 0.03 0.03
0.01 0.01 0.02 0.01 0.01 0.01 0.01 0.02 0.02 0.04 0.04 0.04 0.04 0.04 0.05 0.04 0.05 0.05 0.05 0.03 0.02 0.02 0.02 0.03 0.02 0.02 0.02 0.03 0.03 0.03 0.05 0.06 0.05 0.04 0.03 0.03 0.03 0.03 0.03 0.04 0.04 0.04 0.03
0.01 0.01 0.01 0.01 0.01 0.01 0.01 0.01 0.01 0.02 0.02 0.02 0.02 0.02 0.03 0.03 0.03 0.04 0.03 0.03 0.02 0.01 0.02 0.02 0.03 0.02 0.02 0.02 0.03 0.03 0.03 0.04 0.04 0.05 0.04 0.03 0.03 0.04 0.05 0.04 0.04 0.04 0.04
MSLP
1013.40 1013.52 1013.60 1013.67 1013.74 1013.82 1013.91 1013.99 1014.05 1014.08 1014.06 1013.99 1013.89 1013.78 1013.71 1013.71 1013.81 1014.04 1014.37 1014.78 1015.23 1015.68 1016.08 1016.42 1016.68 1016.88 1017.03 1017.16 1017.30 1017.47 1017.66 1017.87 1018.10 1018.33 1018.55 1018.77 1018.97 1019.16 1019.36 1019.56 1019.77 1019.98 1020.20
1013.49 1013.61 1013.70 1013.78 1013.85 1013.94 1014.03 1014.13 1014.22 1014.27 1014.28 1014.24 1014.15 1014.05 1013.95 1013.90 1013.92 1014.04 1014.24 1014.52 1014.85 1015.20 1015.54 1015.86 1016.13 1016.37 1016.59 1016.79 1017.00 1017.22 1017.45 1017.68 1017.92 1018.14 1018.36 1018.57 1018.78 1019.00 1019.23 1019.47 1019.72 1019.97 1020.22
1013.57 1013.68 1013.76 1013.83 1013.91 1014.00 1014.11 1014.22 1014.34 1014.42 1014.47 1014.46 1014.40 1014.31 1014.20 1014.10 1014.04 1014.05 1014.13 1014.27 1014.48 1014.72 1014.98 1015.25 1015.52 1015.78 1016.05 1016.31 1016.58 1016.85 1017.11 1017.37 1017.61 1017.84 1018.06 1018.27 1018.50 1018.74 1019.00 1019.29 1019.59 1019.90 1020.20
1013.64 1013.71 1013.77 1013.83 1013.89 1013.98 1014.09 1014.22 1014.35 1014.47 1014.55 1014.58 1014.55 1014.48 1014.37 1014.25 1014.15 1014.07 1014.05 1014.08 1014.16 1014.29 1014.47 1014.68 1014.91 1015.18 1015.46 1015.75 1016.06 1016.36 1016.66 1016.93 1017.18 1017.42 1017.64 1017.86 1018.10 1018.37 1018.67 1019.00 1019.35 1019.71 1020.07
1013.69 1013.71 1013.73 1013.76 1013.80 1013.87 1013.98 1014.10 1014.24 1014.38 1014.48 1014.54 1014.56 1014.52 1014.44 1014.33 1014.21 1014.10 1014.02 1013.97 1013.96 1014.00 1014.09 1014.22 1014.41 1014.64 1014.90 1015.20 1015.51 1015.83 1016.13 1016.41 1016.67 1016.91 1017.13 1017.36 1017.61 1017.90 1018.23 1018.60 1018.99 1019.41 1019.81
1013.72 1013.69 1013.66 1013.65 1013.66 1013.71 1013.79 1013.90 1014.03 1014.16 1014.28 1014.37 1014.43 1014.44 1014.41 1014.34 1014.26 1014.16 1014.06 1013.98 1013.92 1013.90 1013.91 1013.97 1014.09 1014.26 1014.48 1014.74 1015.02 1015.32 1015.61 1015.89 1016.14 1016.37 1016.59 1016.82 1017.07 1017.37 1017.71 1018.09 1018.52 1018.96 1019.40
1013.77 1013.68 1013.61 1013.56 1013.54 1013.55 1013.61 1013.69 1013.80 1013.92 1014.04 1014.15 1014.24 1014.30 1014.34 1014.34 1014.32 1014.28 1014.22 1014.16 1014.09 1014.03 1013.98 1013.98 1014.02 1014.11 1014.26 1014.46 1014.70 1014.95 1015.21 1015.47 1015.70 1015.91 1016.11 1016.32 1016.55 1016.83 1017.15 1017.53 1017.94 1018.39 1018.84
1013.88 1013.76 1013.65 1013.57 1013.53 1013.52 1013.54 1013.59 1013.66 1013.76 1013.86 1013.98 1014.09 1014.20 1014.31 1014.40 1014.47 1014.51 1014.52 1014.51 1014.46 1014.39 1014.32 1014.26 1014.24 1014.25 1014.32 1014.44 1014.61 1014.81 1015.02 1015.22 1015.42 1015.59 1015.76 1015.93 1016.12 1016.35 1016.62 1016.95 1017.33 1017.74 1018.18
1014.13 1013.98 1013.86 1013.77 1013.71 1013.68 1013.68 1013.70 1013.74 1013.79 1013.87 1013.98 1014.10 1014.24 1014.40 1014.57 1014.73 1014.86 1014.96 1015.01 1015.01 1014.97 1014.89 1014.80 1014.72 1014.67 1014.66 1014.71 1014.79 1014.92 1015.07 1015.22 1015.36 1015.49 1015.60 1015.71 1015.83 1015.99 1016.18 1016.43 1016.74 1017.09 1017.47
1014.54 1014.40 1014.28 1014.19 1014.13 1014.09 1014.07 1014.06 1014.07 1014.09 1014.13 1014.20 1014.32 1014.47 1014.66 1014.88 1015.11 1015.32 1015.50 1015.62 1015.68 1015.67 1015.61 1015.51 1015.39 1015.29 1015.22 1015.20 1015.22 1015.28 1015.36 1015.45 1015.53 1015.60 1015.65 1015.68 1015.73 1015.79 1015.89 1016.04 1016.25 1016.51 1016.81
1015.11 1014.98 1014.88 1014.81 1014.76 1014.72 1014.70 1014.67 1014.64 1014.62 1014.62 1014.65 1014.74 1014.88 1015.07 1015.31 1015.58 1015.84 1016.07 1016.25 1016.36 1016.40 1016.36 1016.27 1016.15 1016.02 1015.91 1015.83 1015.80 1015.80 1015.82 1015.85 1015.87 1015.88 1015.86 1015.83 1015.80 1015.77 1015.78 1015.82 1015.92 1016.07 1016.28
1015.77 1015.68 1015.61 1015.56 1015.53 1015.50 1015.47 1015.43 1015.38 1015.32 1015.28 1015.27 1015.31 1015.41 1015.58 1015.81 1016.08 1016.36 1016.62 1016.83 1016.98 1017.05 1017.04 1016.97 1016.86 1016.72 1016.60 1016.49 1016.42 1016.37 1016.35 1016.33 1016.30 1016.26 1016.19 1016.10 1016.00 1015.91 1015.83 1015.79 1015.79 1015.84 1015.94
1016.47 1016.41 1016.37 1016.35 1016.33 1016.32 1016.29 1016.24 1016.17 1016.08 1016.01 1015.95 1015.95 1016.00 1016.13 1016.31 1016.55 1016.82 1017.07 1017.30 1017.47 1017.56 1017.58 1017.53 1017.43 1017.31 1017.18 1017.06 1016.97 1016.89 1016.83 1016.78 1016.72 1016.64 1016.54 1016.42 1016.29 1016.15 1016.03 1015.93 1015.86 1015.82 1015.82
1017.12 1017.09 1017.08 1017.08 1017.08 1017.07 1017.05 1017.00 1016.92 1016.82 1016.71 1016.62 1016.57 1016.58 1016.65 1016.78 1016.97 1017.19 1017.42 1017.63 1017.79 1017.90 1017.93 1017.91 1017.83 1017.73 1017.60 1017.48 1017.37 1017.28 1017.20 1017.12 1017.04 1016.96 1016.85 1016.73 1016.60 1016.47 1016.34 1016.21 1016.10 1016.01 1015.93
1017.67 1017.67 1017.69 1017.70 1017.71 1017.72 1017.70 1017.65 1017.57 1017.46 1017.34 1017.23 1017.15 1017.10 1017.12 1017.19 1017.32 1017.49 1017.67 1017.84 1017.99 1018.09 1018.13 1018.12 1018.07 1017.97 1017.86 1017.74 1017.62 1017.52 1017.42 1017.33 1017.25 1017.17 1017.08 1016.99 1016.89 1016.79 1016.69 1016.59 1016.48 1016.37 1016.24
1018.11 1018.15 1018.19 1018.22 1018.24 1018.25 1018.24 1018.20 1018.13 1018.03 1017.90 1017.78 1017.67 1017.59 1017.56 1017.58 1017.65 1017.75 1017.88 1018.01 1018.13 1018.21 1018.25 1018.25 1018.20 1018.11 1018.00 1017.88 1017.76 1017.64 1017.53 1017.43 1017.35 1017.28 1017.22 1017.17 1017.14 1017.10 1017.06 1017.01 1016.93 1016.82 1016.67
1018.50 1018.57 1018.63 1018.68 1018.71 1018.74 1018.73 1018.71 1018.64 1018.55 1018.44 1018.31 1018.19 1018.09 1018.03 1018.00 1018.01 1018.06 1018.14 1018.22 1018.30 1018.35 1018.38 1018.37 1018.32 1018.23 1018.12 1017.98 1017.84 1017.71 1017.58 1017.47 1017.39 1017.33 1017.30 1017.30 1017.33 1017.36 1017.39 1017.40 1017.38 1017.30 1017.15
1018.88 1018.99 1019.08 1019.15 1019.21 1019.25 1019.26 1019.24 1019.19 1019.11 1019.01 1018.89 1018.76 1018.65 1018.56 1018.49 1018.46 1018.46 1018.49 1018.53 1018.56 1018.59 1018.60 1018.57 1018.51 1018.41 1018.29 1018.14 1017.97 1017.81 1017.66 1017.53 1017.43 1017.38 1017.38 1017.41 1017.48 1017.58 1017.67 1017.74 1017.77 1017.72 1017.59
1019.31 1019.47 1019.60 1019.70 1019.78 1019.84 1019.86 1019.86 1019.82 1019.75 1019.65 1019.54 1019.41 1019.28 1019.17 1019.08 1019.02 1018.98 1018.96 1018.96 1018.97 1018.97 1018.95 1018.90 1018.82 1018.71 1018.56 1018.39 1018.20 1018.00 1017.82 1017.67 1017.55 1017.49 1017.48 1017.53 1017.62 1017.75 1017.88 1017.99 1018.06 1018.05 1017.95
1019.81 1020.02 1020.19 1020.34 1020.44 1020.52 1020.55 1020.56 1020.53 1020.46 1020.36 1020.24 1020.11 1019.98 1019.86 1019.75 1019.66 1019.59 1019.55 1019.51 1019.49 1019.46 1019.42 1019.35 1019.25 1019.12 1018.95 1018.75 1018.53 1018.31 1018.10 1017.91 1017.76 1017.67 1017.64 1017.67 1017.76 1017.88 1018.02 1018.15 1018.23 1018.25 1018.17
1020.37 1020.62 1020.84 1021.01 1021.15 1021.24 1021.28 1021.29 1021.25 1021.18 1021.08 1020.96 1020.82 1020.68 1020.55 1020.43 1020.33 1020.24 1020.18 1020.12 1020.07 1020.02 1019.95 1019.86 1019.75 1019.59 1019.40 1019.19 1018.95 1018.70 1018.45 1018.23 1018.05 1017.92 1017.86 1017.85 1017.90 1017.98 1018.10 1018.20 1018.28 1018.30 1018.25
1020.91 1021.21 1021.46 1021.66 1021.81 1021.91 1021.96 1021.96 1021.92 1021.84 1021.73 1021.60 1021.46 1021.32 1021.19 1021.07 1020.96 1020.87 1020.79 1020.72 1020.65 1020.58 1020.49 1020.38 1020.24 1020.07 1019.87 1019.63 1019.38 1019.11 1018.85 1018.60 1018.39 1018.22 1018.10 1018.04 1018.03 1018.06 1018.12 1018.18 1018.22 1018.23 1018.18
1021.39 1021.71 1021.98 1022.19 1022.35 1022.45 1022.50 1022.49 1022.43 1022.34 1022.23 1022.10 1021.96 1021.83 1021.70 1021.59 1021.49 1021.40 1021.32 1021.24 1021.15 1021.06 1020.95 1020.82 1020.66 1020.48 1020.26 1020.02 1019.76 1019.49 1019.22 1018.96 1018.73 1018.52 1018.36 1018.24 1018.16 1018.12 1018.10 1018.10 1018.09 1018.07 1018.01
1021.75 1022.07 1022.34 1022.55 1022.71 1022.80 1022.83 1022.82 1022.75 1022.66 1022.54 1022.42 1022.29 1022.18 1022.07 1021.98 1021.89 1021.81 1021.73 1021.64 1021.54 1021.43 1021.30 1021.15 1020.97 1020.77 1020.55 1020.31 1020.06 1019.79 1019.53 1019.27 1019.02 1018.80 1018.60 1018.43 1018.28 1018.16 1018.07 1017.99 1017.92 1017.85 1017.78
1021.97 1022.27 1022.53 1022.73 1022.87 1022.95 1022.97 1022.95 1022.88 1022.79 1022.68 1022.58 1022.48 1022.39 1022.31 1022.24 1022.17 1022.10 1022.03 1021.94 1021.82 1021.69 1021.53 1021.36 1021.16 1020.95 1020.72 1020.49 1020.24 1020.00 1019.75 1019.51 1019.27 1019.03 1018.81 1018.60 1018.40 1018.21 1018.04 1017.89 1017.75 1017.63 1017.52
1022.07 1022.35 1022.59 1022.78 1022.90 1022.97 1022.98 1022.95 1022.89 1022.81 1022.72 1022.64 1022.57 1022.51 1022.46 1022.42 1022.38 1022.32 1022.24 1022.14 1022.02 1021.86 1021.68 1021.48 1021.26 1021.04 1020.81 1020.58 1020.35 1020.13 1019.91 1019.68 1019.46 1019.23 1019.00 1018.77 1018.53 1018.29 1018.05 1017.83 1017.63 1017.45 1017.30
Thickness
5784 5784 5782 5781 5782 5781 5780 5778 5777 5776 5776 5776 5775 5774 5774 5773 5772 5770 5765 5760 5758 5756 5754 5753 5751 5750 5748 5746 5744 5742 5740 5738 5736 5735 5733 5732 5730 5728 5727 5726 5724 5723 5722
5783 5783 5781 5780 5781 5780 5779 5778 5776 5775 5775 5775 5774 5773 5772 5772 5769 5768 5767 5762 5758 5756 5754 5753 5751 5750 5748 5746 5744 5741 5739 5738 5736 5734 5733 5731 5729 5727 5726 5724 5723 5722 5721
5783 5782 5782 5781 5780 5779 5778 5777 5776 5776 5774 5774 5773 5772 5772 5770 5770 5768 5767 5764 5761 5757 5755 5753 5751 5749 5747 5746 5744 5742 5740 5737 5736 5734 5732 5730 5728 5727 5725 5724 5722 5721 5720
5782 5781 5782 5781 5779 5779 5778 5777 5776 5775 5773 5773 5772 5773 5772 5770 5769 5768 5767 5765 5763 5761 5757 5754 5752 5750 5748 5746 5744 5742 5740 5738 5735 5733 5731 5729 5728 5726 5724 5723 5722 5721 5720
5783 5782 5781 5780 5780 5780 5779 5778 5777 5775 5772 5771 5772 5771 5771 5771 5770 5769 5768 5767 5764 5762 5760 5755 5753 5751 5749 5747 5745 5743 5741 5738 5736 5733 5731 5729 5727 5726 5724 5723 5721 5720 5719
5782 5782 5782 5780 5781 5779 5777 5776 5774 5773 5772 5772 5773 5771 5771 5771 5771 5770 5769 5767 5765 5763 5761 5758 5755 5753 5750 5747 5745 5743 5740 5738 5735 5732 5730 5728 5727 5725 5724 5723 5721 5720 5719
5783 5782 5783 5780 5780 5779 5777 5777 5775 5773 5772 5772 5769 5767 5770 5771 5770 5769 5768 5767 5765 5763 5761 5758 5757 5755 5752 5748 5746 5743 5740 5737 5734 5732 5730 5728 5726 5725 5723 5722 5720 5719 5718
5782 5784 5781 5782 5781 5778 5776 5776 5774 5774 5774 5773 5769 5765 5762 5764 5766 5769 5767 5765 5764 5763 5761 5760 5757 5754 5752 5751 5748 5743 5739 5736 5734 5731 5729 5727 5725 5723 5722 5720 5719 5717 5717
5782 5781 5781 5781 5780 5781 5778 5776 5775 5772 5771 5772 5771 5767 5761 5758 5761 5764 5763 5763 5762 5761 5761 5759 5757 5754 5752 5750 5747 5743 5739 5736 5733 5731 5729 5726 5724 5722 5721 5720 5718 5716 5715
5782 5782 5781 5780 5780 5781 5778 5777 5776 5774 5771 5769 5770 5768 5767 5764 5757 5755 5759 5761 5760 5758 5758 5758 5757 5754 5752 5749 5746 5742 5738 5735 5732 5729 5727 5725 5723 5721 5720 5718 5717 5716 5714
5782 5781 5780 5779 5778 5778 5776 5775 5773 5772 5772 5770 5768 5768 5765 5762 5761 5755 5751 5754 5757 5759 5758 5756 5755 5753 5751 5748 5745 5741 5737 5733 5731 5728 5725 5723 5721 5720 5718 5717 5716 5715 5714
5782 5781 5779 5777 5777 5776 5774 5773 5771 5770 5768 5767 5767 5767 5764 5761 5759 5757 5752 5751 5752 5755 5756 5754 5753 5751 5749 5747 5744 5739 5735 5732 5729 5726 5724 5722 5720 5718 5716 5715 5714 5713 5712
5781 5778 5778 5775 5775 5773 5772 5771 5769 5768 5767 5764 5763 5764 5764 5763 5762 5759 5754 5752 5751 5753 5752 5753 5752 5749 5747 5745 5741 5736 5733 5729 5726 5724 5722 5720 5718 5716 5714 5713 5711 5710 5709
5781 5779 5776 5774 5773 5772 5771 5769 5769 5767 5765 5763 5763 5761 5761 5761 5761 5758 5755 5751 5748 5749 5749 5748 5749 5747 5744 5742 5738 5733 5731 5728 5724 5722 5720 5717 5716 5714 5712 5710 5709 5708 5706
5779 5776 5774 5772 5771 5769 5768 5766 5766 5764 5763 5762 5762 5760 5759 5759 5758 5757 5755 5752 5746 5742 5743 5745 5744 5743 5741 5737 5733 5731 5729 5725 5722 5720 5717 5715 5713 5711 5709 5707 5706 5705 5703
5774 5772 5771 5769 5768 5767 5766 5764 5763 5762 5759 5758 5757 5755 5754 5756 5755 5754 5752 5750 5747 5742 5739 5743 5740 5740 5735 5734 5730 5728 5725 5722 5719 5717 5714 5712 5709 5707 5705 5704 5702 5701 5699
5769 5768 5767 5765 5764 5763 5763 5760 5760 5758 5756 5755 5754 5752 5751 5750 5751 5751 5749 5746 5744 5740 5735 5737 5738 5735 5730 5728 5726 5724 5722 5720 5718 5714 5711 5709 5706 5704 5702 5700 5698 5696 5695
5767 5765 5764 5762 5761 5760 5759 5757 5755 5754 5752 5750 5749 5748 5747 5747 5744 5743 5742 5740 5738 5735 5732 5728 5730 5730 5726 5725 5722 5720 5719 5718 5716 5712 5708 5705 5703 5700 5698 5696 5695 5692 5691
5764 5763 5760 5758 5757 5757 5755 5753 5751 5750 5748 5747 5746 5744 5742 5741 5738 5738 5736 5735 5734 5733 5729 5726 5726 5725 5723 5721 5718 5716 5716 5713 5712 5709 5705 5702 5699 5697 5694 5692 5690 5688 5686
5760 5758 5756 5755 5753 5752 5751 5749 5747 5745 5743 5742 5741 5740 5738 5736 5733 5731 5730 5728 5728 5726 5724 5723 5721 5719 5717 5715 5713 5711 5709 5709 5707 5706 5702 5699 5696 5693 5691 5688 5686 5684 5682
5757 5754 5752 5750 5749 5748 5746 5743 5741 5741 5738 5737 5736 5734 5733 5730 5727 5725 5726 5724 5722 5720 5719 5717 5715 5713 5711 5707 5706 5706 5703 5702 5700 5699 5696 5695 5694 5692 5689 5685 5682 5679 5677
5751 5749 5747 5745 5743 5743 5738 5735 5733 5734 5732 5731 5729 5728 5727 5725 5722 5719 5716 5715 5713 5712 5712 5710 5709 5705 5703 5701 5699 5699 5696 5694 5691 5692 5688 5688 5688 5686 5684 5681 5677 5674 5672
5744 5742 5741 5739 5736 5734 5730 5728 5726 5726 5727 5725 5723 5722 5723 5723 5718 5716 5713 5709 5707 5705 5703 5703 5702 5700 5698 5697 5693 5691 5688 5687 5684 5685 5682 5681 5681 5679 5679 5676 5672 5669 5666
5738 5736 5734 5732 5729 5727 5723 5721 5719 5721 5721 5719 5718 5717 5715 5714 5713 5709 5708 5707 5704 5702 5699 5698 5696 5695 5694 5690 5686 5684 5682 5681 5680 5678 5676 5674 5675 5674 5675 5671 5667 5664 5661
5730 5728 5727 5725 5722 5720 5716 5714 5712 5715 5714 5713 5713 5711 5709 5707 5703 5700 5700 5699 5697 5697 5694 5691 5689 5687 5685 5682 5679 5678 5677 5675 5674 5674 5672 5669 5669 5668 5668 5667 5663 5659 5656
5722 5721 5720 5718 5716 5714 5710 5706 5703 5709 5708 5708 5707 5705 5702 5699 5695 5692 5692 5691 5690 5690 5688 5687 5683 5681 5680 5677 5674 5671 5671 5669 5668 5667 5666 5662 5662 5661 5659 5661 5659 5656 5652